Regional Weather Roundup
Issued by NWS

Home | Current Version | Previous Version | Graphics & Text | Print | Product List | Glossary On
Versions: 1 2 3 4 5 6 7 8 9 10 11 12 13 14 15 16 17 18 19 20 21 22 23 24 25 26 27 28 29 30 31 32 33 34 35 36 37 38 39 40 41 42 43 44 45 46 47 48 49 50
088
ASUS43 KIND 081409
RWRIN

WEATHER ROUNDUP FOR INDIANA
NATIONAL WEATHER SERVICE INDIANAPOLIS IN
900 AM EST MON FEB 08 2016

NOTE: "FAIR" INDICATES FEW OR NO CLOUDS BELOW 12,000 FEET WITH NO
SIGNIFICANT WEATHER AND/OR OBSTRUCTIONS TO VISIBILITY.

* - STATION DOES NOT REPORT WEATHER SUCH AS PRECIPITATION OR FOG.

+ - STATION NOT QUALITY CONTROLLED BY THE NATIONAL WEATHER SERVICE.
    USE DATA WITH CAUTION...ESPECIALLY DEWPOINT AND RELATIVE
    HUMIDITY OBSERVATIONS.

INZ001>003-010>013-019-020-081500-
NORTHWEST INDIANA

CITY           SKY/WX    TMP DP  RH WIND       PRES   REMARKS
GARY /AIRPORT/ LGT SNOW  34  30  86 W8        29.64S WCI  27
LA PORTE +     CLOUDY    32  32 100 SW3       29.63F
MICHIGAN CITY+ CLOUDY    32  30  93 SW5       29.64S WCI  27
MONTICELLO +   PTSUNNY   31  26  81 W7        29.66S WCI  24
RENSSELAER +   CLOUDY    32  30  93 SW8       29.65S WCI  25
VALPARAISO     CLOUDY    31  28  89 SW8       29.64R WCI  23

$$

LMZ046-743>745-081500-
SOUTHERN LAKE MICHIGAN

STATION/POSITION TIME  TEMP    WIND        PRES    WAVE
                       AIR SEA DIR/SP/G            HT
                 (UTC) (F)     (DEG/KT/KT) (MB)    (FT)
BURNS HARBOR     1300   32     210/  9/ 12 1004.1F
MICHIGAN CITY    1300   30     190/  9/ 10   N/A

$$

INZ004-005-014>016-021>024-081500-
NORTH CENTRAL INDIANA

CITY           SKY/WX    TMP DP  RH WIND       PRES   REMARKS
ELKHART          N/A     28  27  93 CALM      29.63S
GOSHEN         CLOUDY    31  28  89 S5        29.63S WCI  26
LOGANSPORT +   CLOUDY    32  27  80 W7        29.66S WCI  26
PERU/GRISSOM   CLOUDY    33  31  93 W6        29.63F WCI  27
ROCHESTER +    CLOUDY    34  28  80 SW6       29.65S WCI  29
SOUTH BEND     CLOUDY    29  26  89 SW9       29.63S WCI  20
WARSAW +       PTSUNNY   30  28  93 CALM      29.64S

$$

INZ006>009-017-018-025>027-081500-
NORTHEAST INDIANA

CITY           SKY/WX    TMP DP  RH WIND       PRES   REMARKS
ANGOLA *+      CLOUDY    30  28  93 W3        29.62S
AUBURN +       CLOUDY    32  30  93 SW3       29.64S
FORT WAYNE     PTSUNNY   34  29  82 W9        29.65S WCI  27
HUNTINGTON +   CLOUDY    32  27  82 W7        29.64S WCI  26

$$

INZ028-029-035-036-043>045-051>053-081500-
WEST CENTRAL INDIANA

CITY           SKY/WX    TMP DP  RH WIND       PRES   REMARKS
GREENCASTLE +  CLOUDY    32  28  86 W5        29.68S WCI  27
LAFAYETTE      CLOUDY    30  28  92 W5        29.67S WCI  25
TERRE HAUTE    CLOUDY    33  31  92 W6        29.70S WCI  28

$$

INZ030>032-037>040-046>048-054>057-064-065-081500-
CENTRAL INDIANA

CITY           SKY/WX    TMP DP  RH WIND       PRES   REMARKS
FISHERS *+     CLOUDY    32  32 100 W6        29.67S WCI  26
FRANKFORT +    MOSUNNY   32  32  99 SW6       29.68S WCI  26
GREENWOOD *+   CLOUDY    34  34 100 W3        29.68S
INDIANAPOLIS   NOT AVBL
-EAGLE CREEK   CLOUDY    33  30  88 W8        29.66F WCI  26
KOKOMO *+        N/A     34  28  80 W9        29.66S WCI  26
MARION +       CLOUDY    32  27  80 CALM      29.65F
MT COMFORT *+  CLOUDY    32  32 100 CALM      29.67S
SHELBYVILLE    CLOUDY    34  31  88 SW5       29.67S FOG     WCI  30
ZIONSVILLE +   CLOUDY    32  30  93 W7        29.67S WCI  25

$$

INZ033-034-041-042-049-050-058-059-081500-
EAST CENTRAL INDIANA

CITY           SKY/WX    TMP DP  RH WIND       PRES   REMARKS
MUNCIE         LGT SNOW  34  31  88 W6        29.65S FOG     WCI  29

$$

INZ060-061-067>069-081>083-085>088-081500-
SOUTHWEST INDIANA

CITY           SKY/WX    TMP DP  RH WIND       PRES   REMARKS
EVANSVILLE     CLOUDY    36  32  85 W7        29.77R
HUNTINGBURG *+ CLOUDY    34  30  86 SW8       29.74S WCI  27
WASHINGTON +   CLOUDY    35  32  89 W7        29.72S WCI  29

$$

INZ062-063-066-070>080-084-089>092-081500-
SOUTH CENTRAL AND SOUTHEAST INDIANA

CITY           SKY/WX    TMP DP  RH WIND       PRES   REMARKS
BEDFORD +      LGT SNOW  32  32 100 W3        29.69F
BLOOMINGTON    CLOUDY    34  32  92 NW7       29.68S WCI  28
MADISON *+     CLOUDY    34  32  93 SW5       29.70R WCI  30
NORTH VERNON + CLOUDY    36  36 100 CALM      29.68F
SEYMOUR +      DRIZZLE   37  36  93 SW5       29.69S

$$





USA.gov is the U.S. government's official web portal to all federal, state and local government web resources and services.